Miscellaneous Local Product
Issued by NWS North Platte, NE

Home | Current Version | Previous Version | Text Only | Print | Product List | Glossary On
Versions: 1 2 3 4 5 6 7 8 9 10 11 12 13 14 15 16 17 18 19 20 21 22 23 24 25 26 27 28 29 30 31 32 33 34 35 36 37 38 39 40 41 42 43 44 45 46 47 48 49 50
000
AXUS43 KLBF 281410
MISLBF


WESTERN AND NORTH CENTRAL NEBRASKA HOURLY WEATHER ROUNDUP
NATIONAL WEATHER SERVICE NORTH PLATTE NE
800 AM CST SUN DEC 28 2014

***STATIONS NOT REPORTING VARIABLES SUCH AS SKY/WEATHER OR
PRESSURE ARE PROVIDED BY THE NEBRASKA DEPARTMENT OF
ROADS...RAWS...AND APRS NETWORKS...AND ARE NOT UNDER
NATIONAL WEATHER SERVICE QUALITY CONTROL***

...OBSERVATIONS IN AND NEAR THE EASTERN PANHANDLE OF NEBRASKA...

CITY           SKY/WX    TMP DP  RH WIND       PRES   REMARKS
PINE RIDGE     PTCLDY     3  -2  79 CALM      29.95S
CHADRON        PTCLDY     4  -1  80 CALM      29.96S
ALLIANCE       CLOUDY     8   3  80 CALM      29.95S
SIDNEY         PTCLDY     6  -1  73 W6        29.97S WCI  -4
WHITECLAY        N/A     -1  -8  74 S5          N/A  WCI -11
CRESCENT LAKE    N/A      4  -1  79 CALM        N/A
LISCO            N/A      5  -1  74 CALM        N/A
BIG SPRINGS      N/A      3   0  85 W8          N/A  WCI -10
$$

...OBSERVATIONS IN NORTH CENTRAL NEBRASKA...

CITY           SKY/WX    TMP DP  RH WIND       PRES   REMARKS
VALENTINE      PTCLDY     0  -4  83 W7        30.02S WCI -13
THEDFORD       PTCLDY     4   0  84 W3        30.02S
AINSWORTH      PTCLDY     6   1  80 W6        30.02S WCI  -4
O`NEILL        PTCLDY     5   4  94 W3        30.06S
ORD            MOCLDY     2  -1  88 NW5       30.07R WCI  -8
BROKEN BOW     PTCLDY     4   1  88 CALM      30.03F
BROWNLEE         N/A      6  -1  73 SW3         N/A
SPRINGVIEW       N/A      0  -3  87 CALM        N/A
BREWSTER         N/A      7   5  91 W3          N/A
ROSE             N/A     11  10  95 CALM        N/A
SARGENT          N/A      3   1  90 CALM        N/A
COMSTOCK         N/A     11   6  77 W3          N/A
CHAMBERS         N/A      3  -2  80 CALM        N/A
EWING            N/A      5   3  91 CALM        N/A
$$

...OBSERVATIONS IN SOUTHWEST NEBRASKA AND FAR NORTHEAST COLORADO...

CITY           SKY/WX    TMP DP  RH WIND       PRES   REMARKS
WRAY           CLOUDY     7   2  82 SW3       30.01S
HOLYOKE        FAIR       5   0  78 W9        30.01R WCI  -9
IMPERIAL       CLEAR      2  -3  80 W5        30.02F WCI  -8
OGALLALA       PTCLDY    -2  -6  85 W7        30.03R WCI -16
NORTH PLATTE   PTCLDY    -3  -7  82 NW6       30.06S WCI -15
MCCOOK         CLEAR      4   0  83 SW7       30.07S WCI  -8
LEXINGTON      PTCLDY     4   0  86 W7        30.07R WCI  -8
PAXTON           N/A      4   0  83 W5          N/A  WCI  -5
BRADY            N/A      2  -2  84 CALM        N/A
GOTHENBURG       N/A      4   0  83 NW3         N/A
CALLAWAY         N/A      9   5  83 NW3         N/A
$$

...NORTH PLATTE AREA...

CITY           SKY/WX    TMP DP  RH WIND       PRES   REMARKS
AIRPORT        PTCLDY    -3  -7  82 NW6       30.06S WCI -15
DOWNTOWN         N/A      3  -1  85 CALM        N/A
$$

...SOME WEATHER OBSERVATIONS FROM AROUND THE REGION...

CITY           SKY/WX    TMP DP  RH WIND       PRES   REMARKS
DENVER         MOCLDY    11   6  81 CALM      29.91S
LARAMIE        CLOUDY    16   5  62 S16G24    29.85F WCI   1
CHEYENNE       CLOUDY    24   5  44 W20G30    29.86F WCI  10
SCOTTSBLUFF    CLOUDY    10   5  80 E8        29.95F WCI  -2
RAPID CITY     MOCLDY    16   6  65 W3        29.93R
PIERRE         PTCLDY     5   3  91 CALM      30.04S
WINNER         FAIR       8   2  76 SW7       30.04R WCI  -3
SIOUX FALLS    PTCLDY    -3  -7  82 CALM      30.09S
OMAHA          CLEAR     16  12  84 SE5       30.16R WCI   9
GRAND ISLAND   PTCLDY     8   3  80 W7        30.10R WCI  -3
KANSAS CITY    PTCLDY    17  15  92 S7        30.21R WCI   8
WICHITA        PTCLDY    17  12  80 CALM      30.21F
HAYS           CLEAR     12   1  62 CALM      30.13F
LIBERAL        CLEAR     12   7  79 S5        30.10S WCI   4
GOODLAND       MOCLDY    15   9  76 SW7       30.00F WCI   5
$$



USA.gov is the U.S. government's official web portal to all federal, state and local government web resources and services.